Location: Ceske Budejovice
(48.9830°N, 14.4670°E)
Time: 16:57:17
(UTC+02:00)

DX 1 - Pass Details

Date: 29 August 2019
Orbit: 620 x 630 km, 98.4° (Epoch: 19 September)

Event Time Altitude Azimuth Distance (km) Brightness Sun altitude
Rises 02:42:38 0° 106° (ESE) 2,896 ? -27.6°
Reaches altitude 10° 02:46:15 10° 74° (ENE) 1,997 ? -27.3°
Maximum altitude 02:47:43 12° 54° (NE) 1,898 ? -27.2°
Drops below altitude 10° 02:49:10 10° 35° (NE) 2,003 ? -27.0°
Sets 02:52:48 0° 3° (N) 2,919 ? -26.7°
